Location: downtown San Diego
(32.7310°N, 117.1990°W)
Time: 23:44:50
(UTC-08:00)

Daily predictions for brighter satellites

Satellite Brightness Start Highest point End
(mag) Time Altitude Azimuth Time Altitude Azimuth Time Altitude Azimuth
Cosmos 1386 Rocket 4.5 17:52:04 10° N 17:58:18 77° E 18:04:21 10° S
CZ-4 R/B 4.4 17:55:57 10° SSE 18:00:02 65° ENE 18:04:09 10° N
Cosmos 1782 2.7 17:56:58 10° N 18:00:57 79° E 18:04:56 10° S
Lacrosse 5 4.4 17:59:17 10° WNW 18:01:28 13° NNW 18:03:38 10° N
Cosmos 1898 Rocket 3.7 17:56:33 10° NNW 18:01:45 81° WSW 18:06:54 10° SSE
CZ-4 R/B 1.2 17:58:37 10° SSE 18:02:28 82° ENE 18:06:24 10° N
Cosmos 858 Rocket 4.5 17:59:58 10° NNW 18:05:15 83° ENE 18:10:28 10° SSE
NOAA 12 4.2 18:01:32 10° SSE 18:06:48 90° ENE 18:12:08 10° NNW
Cosmos 2263 Rocket 3.5 18:06:17 10° SW 18:11:41 44° WNW 18:17:05 10° N
FengYun 1-2 T 4.3 18:09:45 10° SSE 18:15:15 59° ENE 18:20:43 10° N
SL-08 ROCKET BODY 4.4 18:11:17 10° N 18:17:28 68° E 18:23:35 10° SSE
COSMOS 2455 3.8 18:16:35 10° N 18:21:32 26° NE 18:26:12 11° ESE
Cosmos 1633 2.9 18:18:07 10° SSE 18:21:33 42° E 18:25:00 10° NNE
NOSS 2-1 (E) 3.1 18:18:40 10° SSW 18:22:14 59° ESE 18:25:48 10° NE
Cosmos 2150 Rocket 4.1 18:18:55 10° N 18:24:09 58° ENE 18:29:26 10° SSE
SJ 16-02 1.3 18:21:24 10° N 18:25:47 63° ENE 18:30:09 10° SSE
Ariane Rocket 2.9 18:21:03 10° SSE 18:26:06 79° ENE 18:31:14 10° N
GEOS 3 Rocket 3.8 18:20:55 10° SSE 18:26:12 80° WSW 18:31:28 10° NW
H-2A R/B 4.2 18:22:57 10° S 18:26:24 39° W 18:29:53 10° NNW
Cosmos 1356 Rocket 3.9 18:23:44 10° NNE 18:27:25 35° ENE 18:31:08 10° SE
COSMO-SKYMED 1 4.4 18:25:51 10° N 18:29:45 33° WNW 18:33:37 10° SW
Cosmos 1869 Rocket 4.0 18:27:24 10° SSE 18:31:30 38° E 18:35:37 10° NNE
Cosmos 1812 3.6 18:32:47 10° NNE 18:36:06 27° E 18:39:23 10° SE
Cosmos 1844 4.1 18:31:56 10° S 18:37:13 42° ESE 18:42:36 10° NE
Cosmos 1862 Rocket 4.3 18:33:53 10° NNW 18:38:12 56° W 18:42:28 10° S
Cosmos 2242 Rocket 4.0 18:37:15 10° NNW 18:41:36 63° W 18:45:56 10° S
NOSS 3-1 (A) 4.1 18:36:37 10° NNW 18:44:36 80° ENE 18:53:20 10° SSE
Cosmos 2084 Rocket 4.2 18:41:49 10° NW 18:45:52 50° WSW 18:49:49 10° SSE
YAOGAN 6 2.5 18:42:52 10° SSE 18:46:22 60° ENE 18:49:55 10° N
MOS 1 4.2 18:41:31 10° SSE 18:47:04 63° ENE 18:52:38 10° N
SJ-6B 4.5 18:53:41 20° NE 18:53:41 20° NE 18:55:24 10° NNE
Cosmos 2298 Rocket 4.5 18:47:38 10° NNW 18:52:56 65° WSW 18:58:10 10° S
Sakura Rocket 3.3 18:49:38 10° WSW 18:53:05 43° S 18:54:31 29° SE
Meteor 2-21 Rocket 4.3 18:49:05 10° N 18:55:09 72° E 19:01:09 10° SSE
CZ-2D R/B 3.1 18:52:32 10° SSE 18:56:18 68° ENE 19:00:05 10° N
Meteor 2-16 Rocket 4.4 18:52:54 10° N 18:58:58 63° E 19:05:02 10° SSE
Atlas Centaur 2 3.8 18:54:05 10° SSW 18:59:03 25° SSE 19:01:08 22° ESE
Meteor 1-27 Rocket 4.1 19:00:57 10° NNW 19:06:36 68° W 19:12:22 10° S
Lacrosse 5 rocket 1.0 19:07:02 10° SW 19:10:47 88° NW 19:11:24 62° NE
Meteor 1-14 Rocket 4.3 19:06:38 10° SSE 19:11:57 49° E 19:17:20 10° NNE
USA 234 4.3 19:08:56 10° SSE 19:15:03 43° SW 19:21:14 10° WNW
Cosmos 2278 Rocket 3.7 19:10:48 10° SSE 19:12:42 19° SSE 19:12:42 19° SSE
Cosmos 1844 Rocket 3.1 19:11:03 10° SSW 19:16:38 63° WNW 19:22:15 10° NNE
SPOT 3 Rocket 3.4 19:13:12 10° SSE 19:18:22 82° ENE 19:23:36 10° N
Cosmos 2074 Rocket 3.9 19:12:31 10° N 19:18:46 81° E 19:25:02 10° S
Tiangong 2 3.0 19:16:38 10° NW 19:18:13 23° NNW 19:18:13 23° NNW
Cosmos 2184 Rocket 3.9 19:14:58 10° N 19:21:23 82° E 19:27:42 10° S
Cosmos 1703 Rocket 4.5 19:20:00 10° NNW 19:24:09 47° W 19:28:18 10° SSW
Cosmos 1939 Rocket 2.9 19:27:18 70° WSW 19:27:27 71° WSW 19:31:19 10° NNW
Cosmos 2098 Rocket 3.8 19:23:35 10° N 19:30:12 81° W 19:35:27 10° S
Cosmos 2221 Rocket 4.2 19:26:40 10° N 19:29:49 44° N 19:29:49 44° N
Okean 1-7 3.8 19:28:38 10° NNW 19:32:47 49° W 19:36:53 10° SSW
Meteor 1-20 Rocket 4.2 19:33:47 10° SSW 19:39:16 77° W 19:44:52 10° N
CZ-4C R/B 2.0 19:35:18 10° SW 19:40:09 75° WNW 19:40:54 63° N
ATLAS 2AS CENTAUR R/B 4.5 19:41:42 10° N 19:45:18 18° NNE 19:45:18 18° NNE
COSMOS 2455 3.8 20:01:56 10° NW 20:07:35 43° WSW 20:09:29 33° SSW
Milstar 3 Cent rocket 3.7 20:06:01 10° WSW 20:08:39 23° SW 20:08:39 23° SW
Cosmos 2154 Rocket 4.3 20:05:40 10° NNW 20:11:55 66° W 20:11:59 66° W
Atlas Centaur 2 4.2 20:41:03 10° WSW 20:43:46 26° SW 20:43:46 26° SW
